Location: Sternwarte_Laufen
(47.9344°N, 12.9346°E)
Time: 16:06:48
(UTC+02:00)

ISS - Pass Details

Date: 08 May 2026
Orbit: 414 x 424 km, 51.6° (Epoch: 21 May)

Event Time Altitude Azimuth Distance (km) Brightness Sun altitude
Exits shadow 02:34:25 55° 353° (N) 509 -3.2 -22.0°
Maximum altitude 02:34:40 57° 15° (NNE) 498 -3.2 -22.0°
Drops below altitude 10° 02:37:59 10° 95° (E) 1,498 -0.8 -21.8°
Sets 02:40:07 0° 100° (E) 2,363 0.2 -21.6°
